Location: Igri�s
(42.2144°N, 0.4320°W)
Time: 09:23:29
(UTC+00:00)

Lacrosse 5 - Pass Details

Date: 13 August 2020
Orbit: 717 x 720 km, 57.0° (Epoch: 18 September)

Event Time Altitude Azimuth Distance (km) Brightness Sun altitude
Rises 20:35:38 0° 316° (NW) 3,128 6.9 -15.6°
Reaches altitude 10° 20:38:08 10° 323° (NW) 2,206 5.6 -15.9°
Maximum altitude 20:42:59 43° 35° (NE) 999 2.6 -16.7°
Enters shadow 20:45:37 24° 94° (E) 1,465 3.0 -17.0°
